Location: Lafig�re
(44.4503°N, 4.0357°E)
Time: 05:05:33
(UTC+00:00)

N. Korean satellite - Visible Passes

Search period start: 25 November 2020 00:00
Search period end: 05 December 2020 00:00
Orbit: 452 x 504 km, 97.2° (Epoch: 24 November)

Date Brightness Start Highest point End Pass type
(mag) Time Alt. Az. Time Alt. Az. Time Alt. Az.
25 Nov 6.7 05:13:35 10° NNE 05:17:09 75° ESE 05:20:46 10° S visible
25 Nov 9.8 17:25:01 10° SW 17:27:01 15° W 17:29:03 10° NW visible
26 Nov 8.3 04:47:33 10° NNE 04:50:50 34° E 04:54:09 10° SSE visible
26 Nov 8.1 06:21:35 10° NNW 06:23:56 17° WNW 06:26:19 10° WSW visible
26 Nov 8.6 16:57:32 10° SSW 17:00:35 30° W 17:03:40 10° NNW visible
27 Nov 9.6 04:22:01 10° NE 04:24:26 17° E 04:26:51 10° SE visible
27 Nov 7.2 05:54:36 10° N 05:57:51 32° WNW 06:01:06 10° SW visible
28 Nov 6.4 05:28:04 10° N 05:31:39 70° WNW 05:35:16 10° SSW visible
29 Nov 7.4 05:01:50 10° NNE 05:05:22 52° E 05:08:56 10° S visible
29 Nov 9.4 17:12:30 10° SW 17:15:07 20° W 17:17:46 10° NW visible
30 Nov 8.9 04:35:57 10° NE 04:38:58 25° E 04:42:02 10° SSE visible
30 Nov 7.7 06:09:20 10° NNW 06:12:12 23° WNW 06:15:06 10° WSW visible
30 Nov 7.9 16:45:25 10° S 16:48:40 43° W 16:52:00 10° NNW visible
01 Dec 10.0 04:10:51 10° ENE 04:12:30 13° E 04:14:08 10° ESE visible
01 Dec 6.8 05:42:34 10° N 05:46:03 45° WNW 05:49:33 10° SSW visible
02 Dec 6.6 05:16:09 10° NNE 05:19:48 82° ESE 05:23:28 10° S visible
02 Dec 9.8 17:27:45 10° SW 17:29:36 14° W 17:31:28 10° WNW visible
03 Dec 8.1 04:50:01 10° NNE 04:53:26 37° E 04:56:51 10° SSE visible
03 Dec 8.2 06:24:11 10° NNW 06:26:29 16° WNW 06:28:47 10° WSW visible
03 Dec 8.8 17:00:06 10° SSW 17:03:05 28° W 17:06:09 10° NW visible
04 Dec 9.4 04:24:21 10° NE 04:26:59 19° E 04:29:37 10° SE visible
04 Dec 7.4 05:57:07 10° N 06:00:21 30° WNW 06:03:36 10° SW visible
04 Dec 7.0 16:33:17 10° S 16:36:41 64° W 16:40:09 10° NNW visible
